Location: Unspecified
(0.0000°N, 0.0000°E)
Time: 01:38:36
(UTC+00:00)

COSMOS 2490 - Visible Passes

Search period start: 16 May 2026 00:00
Search period end: 26 May 2026 00:00
Orbit: 1477 x 1511 km, 82.5° (Epoch: 15 May)

Date Brightness Start Highest point End Pass type
(mag) Time Alt. Az. Time Alt. Az. Time Alt. Az.
16 May ? 20:02:31 23° NE 20:02:31 23° NE 20:05:59 10° NNE visible
16 May ? 21:58:21 22° NW 21:58:21 22° NW 22:02:01 10° NNW visible
17 May ? 19:12:30 11° ENE 19:12:30 11° ENE 19:13:14 10° ENE visible
17 May ? 21:08:20 45° NNW 21:08:20 45° NNW 21:14:11 10° N visible
18 May ? 20:18:10 52° NE 20:18:10 52° NE 20:24:56 10° NNE visible
18 May ? 22:13:59 15° WNW 22:13:59 15° WNW 22:17:27 10° NW visible
19 May ? 19:27:48 28° E 19:27:48 28° E 19:34:14 10° NE visible
19 May ? 21:23:35 38° W 21:23:35 38° W 21:31:27 10° NNW visible
20 May ? 18:37:07 10° E 18:37:53 10° E 18:38:42 10° E visible
20 May ? 20:32:52 66° SSW 20:34:20 80° W 20:43:10 10° N visible
21 May ? 19:41:28 33° SE 19:45:10 50° E 19:53:33 10° NNE visible
21 May ? 21:37:06 14° WSW 21:41:33 20° W 21:47:37 10° NW visible
22 May ? 18:49:36 10° SE 18:55:58 22° E 19:02:17 10° NE visible
22 May ? 20:44:03 10° SSW 20:52:24 47° W 21:00:44 10° NNW visible
23 May ? 19:54:20 10° S 20:03:13 85° E 20:12:03 10° N visible
24 May ? 19:05:56 10° SSE 19:14:03 40° E 19:22:04 10° NNE visible
24 May ? 21:03:30 10° SW 21:10:26 26° W 21:17:24 10° NW visible
25 May ? 18:19:38 10° SE 18:24:51 17° E 18:30:00 10° ENE visible
25 May ? 20:12:38 10° SSW 20:21:17 58° W 20:29:53 10° N visible
